Weather History for Lakeville, MN

Change the Weather History Date:

Friday, September 23, 2011

  Actual Average Record
Temperature  
Mean Temperature 48 °F -  
Max Temperature 57 °F 64 °F 84 °F (2007)
Min Temperature 39 °F 41 °F 25 °F (1983)
Degree Days  
Heating Degree Days 17    
Moisture  
Dew Point 42 °F    
Average Humidity 80    
Maximum Humidity 100    
Minimum Humidity 58    
Precipitation  
Precipitation 0.00 in - - ()
Sea Level Pressure  
Sea Level Pressure 30.14 in    
Wind  
Wind Speed 1 mph (NE)    
Max Wind Speed 6 mph    
Max Gust Speed -    
Visibility 10 miles    
Events      
Averages and records for this station are not official NWS values.
T = Trace of Precipitation, MM = Missing Value Source: NWS Daily Summary

Daily Weather History Graph

Daily Weather History Graph

Search for Another Location

Airport:

Trip Planner

Search our weather history database for the weather conditions in past years. The results will help you decide how hot, cold, wet, or windy it might be!

Date:

Astronomy

Sep. 23, 2011 Rise Set
Actual Time 7:00 AM CDT 7:08 PM CDT
Civil Twilight 6:31 AM CDT 7:38 PM CDT
Nautical Twilight 5:57 AM CDT 8:12 PM CDT
Astronomical Twilight 5:22 AM CDT 8:46 PM CDT
Moon 2:18 AM CDT (9/23) 4:48 PM CDT (9/23)
Length of Visible Light 13h 06m
Length of Day
12h 08m
Waning Crescent, 19% of the Moon is Illuminated
Sep 23
Waning Crescent
Sep 27
New
Oct 3
First Quarter
Oct 11
Full
Oct 19
Last Quarter

Hourly Weather History & Observations

Time (CDT) Temp. Dew Point Humidity Pressure Visibility Wind Dir Wind Speed Gust Speed Precip Events Conditions
12:14 AM 46.4 °F 42.8 °F 87% 30.17 in 10.0 mi Calm Calm - N/A   Overcast
12:34 AM 46.4 °F 42.8 °F 87% 30.16 in 10.0 mi Calm Calm - N/A   Overcast
12:54 AM 44.6 °F 42.8 °F 93% 30.16 in 10.0 mi Calm Calm - N/A   Overcast
1:14 AM 42.8 °F 41.0 °F 93% 30.16 in 10.0 mi Calm Calm - N/A   Mostly Cloudy
1:34 AM 41.0 °F 39.2 °F 93% 30.16 in 10.0 mi Calm Calm - N/A   Scattered Clouds
1:54 AM 42.8 °F 41.0 °F 93% 30.16 in 10.0 mi Calm Calm - N/A   Clear
2:14 AM 39.2 °F 39.2 °F 100% 30.16 in 10.0 mi Calm Calm - N/A   Clear
2:34 AM 39.2 °F 39.2 °F 100% 30.17 in 10.0 mi Calm Calm - N/A   Mostly Cloudy
2:54 AM 42.8 °F 41.0 °F 93% 30.17 in 10.0 mi Calm Calm - N/A   Overcast
3:14 AM 42.8 °F 42.8 °F 100% 30.17 in 10.0 mi Calm Calm - N/A   Overcast
3:34 AM 42.8 °F 42.8 °F 100% 30.16 in 10.0 mi Calm Calm - N/A   Overcast
3:54 AM 44.6 °F 42.8 °F 93% 30.16 in 10.0 mi Calm Calm - N/A   Overcast
4:14 AM 44.6 °F 42.8 °F 93% 30.16 in 10.0 mi Calm Calm - N/A   Overcast
4:34 AM 44.6 °F 42.8 °F 93% 30.16 in 10.0 mi Calm Calm - N/A   Overcast
4:54 AM 44.6 °F 42.8 °F 93% 30.17 in 10.0 mi Calm Calm - N/A   Overcast
5:14 AM 44.6 °F 42.8 °F 93% 30.17 in 10.0 mi Calm Calm - N/A   Overcast
5:34 AM 44.6 °F 42.8 °F 93% 30.17 in 10.0 mi Calm Calm - N/A   Overcast
5:54 AM 41.0 °F 39.2 °F 93% 30.17 in 10.0 mi Calm Calm - N/A   Scattered Clouds
6:14 AM 39.2 °F 39.2 °F 100% 30.17 in 10.0 mi Calm Calm - N/A   Clear
6:34 AM 39.2 °F 39.2 °F 100% 30.17 in 10.0 mi Calm Calm - N/A   Mostly Cloudy
6:54 AM 39.2 °F 39.2 °F 100% 30.18 in 10.0 mi Calm Calm - N/A   Overcast
7:14 AM 39.2 °F 39.2 °F 100% 30.18 in 5.0 mi Calm Calm - N/A   Mostly Cloudy
7:34 AM 39.2 °F 39.2 °F 100% 30.18 in 7.0 mi Calm Calm - N/A   Mostly Cloudy
8:14 AM 42.8 °F 42.8 °F 100% 30.18 in 10.0 mi Calm Calm - N/A   Overcast
8:34 AM 44.6 °F 42.8 °F 93% 30.18 in 10.0 mi Calm Calm - N/A   Overcast
8:54 AM 46.4 °F 44.6 °F 93% 30.18 in 10.0 mi Calm Calm - N/A   Overcast
9:14 AM 46.4 °F 42.8 °F 87% 30.18 in 10.0 mi Calm Calm - N/A   Overcast
9:34 AM 48.2 °F 41.0 °F 76% 30.18 in 10.0 mi Calm Calm - N/A   Overcast
9:54 AM 48.2 °F 41.0 °F 76% 30.18 in 10.0 mi Calm Calm - N/A   Overcast
10:14 AM 51.8 °F 41.0 °F 67% 30.18 in 10.0 mi NE 3.5 mph - N/A   Overcast
10:34 AM 51.8 °F 41.0 °F 67% 30.18 in 10.0 mi ESE 3.5 mph - N/A   Mostly Cloudy
11:14 AM 51.8 °F 41.0 °F 67% 30.17 in 10.0 mi ENE 4.6 mph - N/A   Overcast
11:34 AM 51.8 °F 41.0 °F 67% 30.17 in 10.0 mi Calm Calm - N/A   Overcast
11:54 AM 51.8 °F 41.0 °F 67% 30.16 in 10.0 mi East 3.5 mph - N/A   Overcast
12:14 PM 51.8 °F 41.0 °F 67% 30.15 in 10.0 mi Calm Calm - N/A   Overcast
12:34 PM 51.8 °F 41.0 °F 67% 30.15 in 10.0 mi North 3.5 mph - N/A   Overcast
12:54 PM 53.6 °F 41.0 °F 62% 30.14 in 10.0 mi NW 3.5 mph - N/A   Overcast
1:14 PM 53.6 °F 41.0 °F 62% 30.14 in 10.0 mi SSW 3.5 mph - N/A   Overcast
1:34 PM 55.4 °F 41.0 °F 58% 30.13 in 10.0 mi NNW 3.5 mph - N/A   Mostly Cloudy
1:54 PM 53.6 °F 41.0 °F 62% 30.12 in 10.0 mi Calm Calm - N/A   Overcast
2:13 PM 55.4 °F 41.0 °F 58% 30.11 in 10.0 mi Calm Calm - N/A   Scattered Clouds
2:54 PM 55.4 °F 42.8 °F 63% 30.11 in 10.0 mi Calm Calm - N/A   Mostly Cloudy
3:13 PM 55.4 °F 42.8 °F 63% 30.11 in 10.0 mi NNW 3.5 mph - N/A   Mostly Cloudy
3:34 PM 55.4 °F 42.8 °F 63% 30.10 in 10.0 mi Calm Calm - N/A   Mostly Cloudy
3:54 PM 55.4 °F 42.8 °F 63% 30.09 in 10.0 mi Calm Calm - N/A   Scattered Clouds
4:13 PM 57.2 °F 42.8 °F 59% 30.08 in 10.0 mi SSW 3.5 mph - N/A   Clear
4:34 PM 57.2 °F 42.8 °F 59% 30.07 in 10.0 mi NNW 3.5 mph - N/A   Scattered Clouds
4:54 PM 57.2 °F 42.8 °F 59% 30.07 in 10.0 mi ENE 4.6 mph - N/A   Scattered Clouds
5:13 PM 57.2 °F 42.8 °F 59% 30.07 in 10.0 mi Calm Calm - N/A   Clear
5:34 PM 55.4 °F 42.8 °F 63% 30.07 in 10.0 mi Calm Calm - N/A   Scattered Clouds
5:54 PM 55.4 °F 42.8 °F 63% 30.07 in 10.0 mi Calm Calm - N/A   Clear
6:13 PM 55.4 °F 42.8 °F 63% 30.07 in 10.0 mi NE 5.8 mph - N/A   Clear
6:34 PM 53.6 °F 42.8 °F 67% 30.08 in 10.0 mi NE 3.5 mph - N/A   Clear
6:54 PM 51.8 °F 42.8 °F 71% 30.08 in 10.0 mi Calm Calm - N/A   Clear
7:14 PM 48.2 °F 42.8 °F 82% 30.07 in 10.0 mi ENE 3.5 mph - N/A   Clear
7:34 PM 48.2 °F 42.8 °F 82% 30.07 in 7.0 mi NE 3.5 mph - N/A   Clear
7:54 PM 44.6 °F 42.8 °F 93% 30.08 in 10.0 mi Calm Calm - N/A   Clear
8:14 PM 44.6 °F 41.0 °F 87% 30.08 in 10.0 mi Calm Calm - N/A   Clear
8:34 PM 42.8 °F 41.0 °F 93% 30.08 in 10.0 mi Calm Calm - N/A   Clear
9:14 PM 41.0 °F 39.2 °F 93% 30.08 in 10.0 mi Calm Calm - N/A   Clear
9:34 PM 41.0 °F 39.2 °F 93% 30.08 in 10.0 mi Calm Calm - N/A   Clear
9:54 PM 42.8 °F 41.0 °F 93% 30.08 in 10.0 mi Calm Calm - N/A   Clear
10:14 PM 41.0 °F 39.2 °F 93% 30.08 in 10.0 mi Calm Calm - N/A   Clear
10:34 PM 41.0 °F 39.2 °F 93% 30.09 in 10.0 mi Calm Calm - N/A   Clear
10:54 PM 41.0 °F 41.0 °F 100% 30.08 in 10.0 mi Calm Calm - N/A   Clear
11:14 PM 39.2 °F 37.4 °F 93% 30.08 in 7.0 mi Calm Calm - N/A   Clear
11:34 PM 39.2 °F 39.2 °F 100% 30.08 in 10.0 mi Calm Calm - N/A   Clear
11:54 PM 41.0 °F 41.0 °F 100% 30.07 in 10.0 mi Calm Calm - N/A   Clear